Regional Weather Roundup
Issued by NWS

Home | Current Version | Previous Version | Graphics & Text | Print | Product List | Glossary On
Versions: 1 2 3 4 5 6 7 8 9 10 11 12 13 14 15 16 17 18 19 20 21 22 23 24 25 26 27 28 29 30 31 32 33 34 35 36 37 38 39 40 41 42 43 44 45 46 47 48 49 50
000
ASUS45 KTFX 240510
RWRMT
MONTANA REGIONAL WEATHER ROUNDUP
NATIONAL WEATHER SERVICE GREAT FALLS MT
1000 PM MST FRI FEB 23 2018

NOTE: "FAIR" INDICATES FEW OR NO CLOUDS BELOW 12000 FEET WITH NO
SIGNIFICANT WEATHER AND/OR OBSTRUCTIONS TO VISIBILITY.

MTZ001>007-043-240600-
WEST OF THE DIVIDE

CITY           SKY/WX    TMP DP  RH WIND       PRES   REMARKS
KALISPELL      CLOUDY    19  12  74 S7        30.04F WCI  10
MISSOULA       CLOUDY    19  11  70 W3        30.07F
BUTTE          FAIR       3  -3  76 CALM      29.89F
MULLAN PASS    LGT SNOW   6   4  91 SW8G17    29.88S FOG     WCI  -7
ANACONDA         N/A     14   0  52 CALM      29.93F
DEER LODGE       N/A      7   0  72 W5        29.95F
HAMILTON         N/A     23   5  46 MISG      30.04F
RONAN            N/A     19  14  79 S10       30.08S WCI   8
$$

MTZ008-052>055-240600-
SOUTHWEST MONTANA

CITY           SKY/WX    TMP DP  RH WIND       PRES   REMARKS
BOZEMAN        CLOUDY    12   5  73 S5        29.93F
DILLON         CLOUDY     8   2  76 SW13      29.93F WCI  -8
ENNIS          CLOUDY    19   5  53 S13       29.95F WCI   7
W YELLOWSTONE  MOCLDY     9   3  78 SW15G24   29.89F HAZE    WCI  -8
THREE FORKS      N/A     13   7  77 CALM      29.92F
TWIN BRIDGES     N/A     17   0  47 CALM      29.94F
$$

MTZ009-010-012-014-046-048-049-054-240600-
EAST SLOPES AND CENTRAL MONTANA

CITY           SKY/WX    TMP DP  RH WIND       PRES   REMARKS
CUT BANK       CLOUDY    16  10  77 W37G46    29.70F HAZE    WCI  -6
GREAT FALLS    FAIR      15   4  61 SW21      29.79F WCI  -2
MALMSTROM AFB  FAIR      13   5  71 SW18      29.81F WCI  -4
HELENA         FAIR      20   4  50 VRB7      29.93F WCI  11
AUGUSTA        SNOWSHWR  14   8  78 W31G37    29.73F WCI  -7
BOWMANS CRNR   FAIR      12   4  72 SW24      29.77F WCI  -8
CHOTEAU          N/A     18   5  57 W18G33    29.73S WCI   2
FAIRFIELD      FAIR      16   6  65 SW29      29.75F WCI  -4
POWER          FAIR      12   5  72 SW21      29.76F WCI  -6
RAYNESFORD     FAIR      19   4  51 SW21G33   29.78F WCI   3
ULM            FAIR      15   5  64 SW14      29.82F WCI   1
WHITE SULPHUR    N/A     12   0  57 E7        29.83S WCI   2
$$

MTZ011-013-016-021-045-047-050-051-240600-
NORTH CENTRAL MONTANA

CITY           SKY/WX    TMP DP  RH WIND       PRES   REMARKS
HAVRE          FAIR      15   7  70 SW24      29.80F WCI  -4
LEWISTOWN      FAIR      12   3  67 SW18      29.79F WCI  -6
N BAR RANCH    FAIR      16   0  48 CALM      29.79F
CHINOOK          N/A     -2  -8  78 E5        29.82F
GEYSER         FAIR      13   3  64 W15       29.77F WCI  -2
WINIFRED       FAIR      14   3  61 SW9       29.78F WCI   2
$$

MTZ017>020-022>027-061-062-240600-
NORTHEAST MONTANA

CITY           SKY/WX    TMP DP  RH WIND       PRES   REMARKS
GLASGOW        FAIR       0  -6  76 SE13      29.88F WCI -18
GLENDIVE       FAIR       4  -2  76 SW10      29.96F WCI -11
JORDAN           N/A     10   1  67 W8        29.88F WCI  -2
MALTA          CLEAR    -17 -20  83 CALM      29.85F
SIDNEY         FAIR      -5 -10  79 S9        29.98F WCI -22
WOLF POINT     FAIR      -6 -11  79 E3        29.95F
PLENTYWOOD       N/A      1  -4  78 SE9       29.91F WCI -14
POPLAR           N/A      1  -4  78 CALM      29.95F
SCOBEY           N/A      1  -9  63 S1        29.85F
$$

MTZ028>42-056>058-240600-
SOUTHCENTRAL AND SOUTHEAST MONTANA

CITY           SKY/WX    TMP DP  RH WIND       PRES   REMARKS
BAKER          FAIR       1  -5  75 SE12      29.95F WCI -16
BILLINGS       FAIR      17   5  59 SW18      29.87F WCI   1
LIVINGSTON     MOCLDY    20   5  52 W22       29.86F WCI   3
MILES CITY     FAIR       2  -2  83 S13       29.94F WCI -15
BIG TIMBER     PTCLDY    19   7  58 W29G40    29.83F WCI   1
FORSYTH          N/A      1  -4  78 CALM      29.92F
HARLOWTON      FAIR      14   5  67 W14       29.81F WCI  -1
LAUREL           N/A     10   3  72 SW16      29.89F WCI  -7
$$

REGIONAL REPORTS...DAKOTAS

CITY           SKY/WX    TMP DP  RH WIND       PRES   REMARKS
WILLISTON      FAIR       2  -2  83 SW5       29.98F
MINOT          FAIR      13   3  64 S9        30.01F WCI   1
DICKINSON      FAIR       2  -6  69 S8        29.97F WCI -12
BEACH          FAIR       5  -2  72 SE8       29.99F WCI  -8
CROSBY         FAIR       5  -2  72 S10       29.95S WCI -10
TIOGA          FAIR       9   3  78 S7        29.97F WCI  -3
WATFORD CITY   FAIR      -2  -6  84 CALM      29.97F
BISMARCK       FAIR       5   1  83 CALM      30.14F
GRAND FORKS    FAIR       4   0  83 S13       30.21F WCI -13
FARGO          FAIR       4   1  88 MISG      30.26F
BUFFALO SD       N/A      1  -5  75 E5        29.90F
RAPID CITY     FAIR       9   1  70 SE10      29.99F WCI  -5
$$

REGIONAL REPORTS...WYOMING/IDAHO/WASHINGTON

CITY           SKY/WX    TMP DP  RH WIND       PRES   REMARKS
GILLETTE       FAIR      15   8  73 S16       29.87F WCI  -1
SHERIDAN       FAIR      -3  -8  79 CALM      29.87F
BUFFALO WY     FAIR      18  -1  43 W3        29.83F
CODY           FAIR      21   2  43 NW14G21   29.86F WCI   8
YELLOWSTONE LA   N/A     -9 -13  83 CALM      29.88S
IDAHO FALLS    FAIR      17  10  74 S21       30.07F WCI   0
SALMON         CLOUDY    20  14  77 NW3       30.05F
BOISE          CLOUDY    26  13  57 E5        30.24F
SPOKANE        CLOUDY    22  20  92 SW16      30.11S WCI   8
$$

REGIONAL REPORTS...ALBERTA

CITY           SKY/WX    TMP DP  RH WIND       PRES   REMARKS
CALGARY        MOCLDY    25   3  39 W20G33    29.59R WCI  11
EDMONTON       CLEAR     28  12  50 W13       29.51S WCI  18
FORT MCMURRAY  LGT SNOW  25  21  86 W8        29.43  WCI  16
HIGH LEVEL     PTCLDY    19  16  86 N7        29.55R WCI  10
LETHBRIDGE     BLWGSNOW  19  12  73 W45G53    29.67F VSB 1/2 WCI  -3
LLOYDMINSTER   MOCLDY    12   7  79 SW13      29.51F WCI  -3
MEDICINE HAT   CLEAR     18  10  73 S14G21    29.69R WCI   4
MILK RIVER       N/A     18  12  79 W29         N/A  WCI  -2
PEACE RIVER    CLOUDY    30  19  64 W16G23    29.43F WCI  19
PINCHER CREEK  LGT SNOW  16   9  73 W38G48    29.71R WCI  -6
WATERTON GATE    N/A     18   3  53 SW33G48     N/A  WCI  -3
$$

REGIONAL REPORTS...SASKATCHEWAN

CITY           SKY/WX    TMP DP  RH WIND       PRES   REMARKS
CORONACH         N/A     -4  -8  84 S6          N/A  WCI -16
CYPRESS HILLS    N/A      9   5  85 W8          N/A  WCI  -4
ESTEVAN        CLEAR      3  -2  78 SW8       29.94F WCI -10
MOOSE JAW        N/A      7  -2  66 S21         N/A  WCI -13
PRINCE ALBERT  MOCLDY    12   3  67 S13       29.64F WCI  -3
REGINA         CLEAR      3  -2  78 S17       29.80F WCI -17
ROCKGLEN         N/A      3  -2  78 SW18        N/A  WCI -17
SASKATOON      MOCLDY    10   3  72 S13       29.66F WCI  -5
$$



USA.gov is the U.S. government's official web portal to all federal, state and local government web resources and services.